[[{"header":{"parameterUnit":"m.s-1","parameterCategory":2,"la1":30.2991,"la2":30.254,"lo1":-89.0895,"lo2":-89.0444,"dy":0.0017,"dx":0.0017,"nx":28,"ny":28,"refTime":"2025-08-06T03:00:00:Z","depth":"0","parameterNumber":2,"parameterNumberName":"U-component_of_CURRENTS"},"data":[0,0,0,0,0,0,0,0,0,0,0,0,0,0,0,0,0,0,0,0,0,0,0,0,0,0,0,0,0,0,0,0,0,0,0,0,0,0,0,0,0,0,0,0,0,0,0,0,0,0,0,0,0,0,0,0,0,0,0.3736,0.3735,0,0.3659,0.3659,0.3658,0.3601,0.3601,0.36,0.3599,0.3554,0.3553,0.3553,0,0,0,0,0,0,0,0,0,0,0,0,0,0.3872,0.387,0.3736,0.3735,0.3734,0.366,0.3659,0.3658,0.3601,0.3601,0.36,0.3599,0.3554,0.3553,0.3553,0,0,0,0,0,0,0,0,0,0,0,0,0,0.3807,0.3869,0.3736,0.3696,0.3692,0.366,0.3659,0.3657,0.3601,0.3601,0.36,0.3599,0.3554,0.3553,0.3552,0.3563,0,0,0.3549,0.3549,0,0,0,0,0,0,0,0,0.3811,0.3802,0.3703,0.3699,0.3694,0.3638,0.369,0.3627,0.3602,0.3636,0.3599,0.3598,0.3585,0.3582,0.357,0.3561,0.3559,0.3549,0.3549,0.3548,0.3548,0,0,0,0,0,0,0,0.3815,0.3805,0.3706,0.3702,0.3696,0.3696,0.3685,0.3678,0.3618,0.3633,0.3629,0.362,0.3583,0.3571,0.3568,0.3559,0.3549,0.3548,0.3548,0.3547,0.3596,0.3598,0,0,0,0,0,0,0.3821,0.3809,0.3709,0.3704,0.375,0.3694,0.3682,0.3658,0.3617,0.3609,0.362,0.3617,0.3573,0.357,0.3567,0.3606,0.3548,0.3547,0.3547,0.3594,0.3597,0.3599,0,0,0,0,0,0,0.3824,0.3813,0.3712,0.3755,0.3742,0.3692,0.3665,0.3657,0.3647,0.3607,0.36,0.362,0.3572,0.3568,0.3573,0.3603,0.3547,0.3546,0.3592,0.3595,0.3598,0.3667,0,0,0,0,0,0,0.3828,0.3814,0.3813,0.3755,0.374,0.3702,0.3666,0.3656,0.3642,0.3638,0.3605,0.3599,0.3571,0.3575,0.3572,0.36,0.3545,0.359,0.3593,0.3597,0.3662,0.3672,0.368,0,0,0,0,0,0.3833,0.383,0.3812,0.3801,0.3734,0.3703,0.3696,0.3658,0.3644,0.3646,0.3628,0.36,0.3596,0.3576,0.3572,0.36,0.3588,0.3592,0.3596,0.3658,0.367,0.368,0,0,0,0,0,0,0.3891,0.3822,0.3802,0.3778,0.3749,0.3693,0.3693,0.3669,0.3656,0.3654,0.3618,0.3612,0.3632,0.3611,0.359,0.3628,0.3591,0.3594,0.3639,0.365,0.3658,0.3671,0.3544,0,0,0,0,0,0.3903,0.388,0.3823,0.3809,0.3794,0.3749,0.3736,0.3709,0.3682,0.3674,0.3652,0.3641,0.3648,0.3643,0.364,0.3656,0.3671,0.3676,0.3685,0.3692,0.3703,0.3781,0.3798,0.3613,0.3613,0.3613,0,0,0.3921,0.3883,0.3869,0.382,0.3793,0.3775,0.3739,0.372,0.3715,0.3675,0.3673,0.3672,0.3661,0.368,0.3688,0.3664,0.375,0.3698,0.3704,0.3711,0.3788,0.3806,0.3822,0.3616,0.3615,0.3615,0,0,0.394,0.3912,0.3896,0.3874,0.3835,0.3808,0.3807,0.376,0.3751,0.375,0.3733,0.3755,0.3739,0.3747,0.3749,0.3809,0.38,0.3807,0.3854,0.393,0.3946,0.3961,0.399,0.4007,0.3805,0.3806,0.3806,0,0.3967,0.3925,0.3894,0.3876,0.3862,0.3826,0.3815,0.3805,0.3771,0.3793,0.376,0.3796,0.3777,0.3829,0.384,0.383,0.3857,0.381,0.3943,0.3958,0.3971,0.3998,0.4015,0.3809,0.3809,0.3809,0.3808,0,0.396,0.3939,0.3933,0.3892,0.3889,0.387,0.385,0.3863,0.3852,0.3853,0.3903,0.3886,0.3914,0.3912,0.3884,0.3975,0.3957,0.3951,0.3915,0.3994,0.4017,0.4034,0.3815,0.3813,0.3812,0.3811,0,0,0.3955,0.393,0.3924,0.3908,0.3889,0.3873,0.3908,0.3924,0.3957,0.3958,0.4016,0.4025,0.4036,0.4039,0.4023,0.407,0.4169,0.4047,0.4049,0.4074,0.4317,0.4233,0.4242,0.4194,0.4197,0.42,0.4289,0,0.3945,0.3921,0.392,0.3904,0.3881,0.3898,0.3929,0.3961,0.3991,0.4047,0.4082,0.4122,0.4079,0.4094,0.4144,0.4171,0.4219,0.4144,0.4238,0.424,0.4156,0.4262,0.4097,0.4157,0.4305,0.4308,0.431,0,0.3902,0.3895,0.3882,0.3891,0.3888,0.3893,0.3952,0.3978,0.4083,0.4122,0.4203,0.4228,0.4305,0.4249,0.4356,0.4314,0.4324,0.4333,0.4337,0.4248,0.4189,0.4106,0.4182,0.4054,0.4335,0.4333,0.4331,0,0.3855,0.3852,0.3842,0.3838,0.386,0.3886,0.3913,0.4006,0.4062,0.4181,0.4255,0.4344,0.4391,0.445,0.4461,0.4429,0.457,0.4531,0.4465,0.4458,0.4329,0.4304,0.4291,0.4621,0.4621,0.4621,0.4621,0,0.3804,0.3786,0.3816,0.38,0.3818,0.3852,0.3911,0.397,0.4095,0.4183,0.4285,0.4366,0.4448,0.4529,0.4529,0.4553,0.4636,0.4499,0.4495,0.4345,0.4321,0.421,0.4151,0.4624,0.4623,0.4623,0.4622,0,0.3728,0.3746,0.3729,0.3766,0.3782,0.3794,0.3898,0.3954,0.4081,0.4209,0.4259,0.4419,0.4515,0.4578,0.4664,0.4627,0.4526,0.464,0.4431,0.4401,0.4187,0.4138,0.401,0.3896,0.459,0.4589,0.4588,0,0.3679,0.3661,0.3693,0.37,0.3711,0.3755,0.3798,0.3926,0.4002,0.4224,0.4281,0.4435,0.4505,0.4611,0.4588,0.4601,0.4473,0.4445,0.435,0.4176,0.412,0.3972,0.3875,0.4203,0.4199,0.4196,0.4193,0,0.3592,0.3608,0.3612,0.3629,0.3656,0.3695,0.3767,0.3832,0.3997,0.4101,0.4231,0.431,0.4438,0.4378,0.4412,0.4399,0.4222,0.4374,0.4271,0.3887,0.3651,0.3537,0.4117,0.4163,0.4166,0.4168,0.417,0.4171,0.3532,0.3518,0.3532,0.3531,0.3569,0.3591,0.3583,0.3684,0.3764,0.3859,0.4051,0.4075,0.4165,0.4183,0.4154,0.3997,0.3996,0.3865,0.3842,0.3724,0.354,0.403,0.4022,0.4024,0.4026,0.4028,0.4029,0,0.3426,0.3422,0.343,0.342,0.3401,0.3462,0.3517,0.3479,0.3483,0.3619,0.3679,0.3711,0.3678,0.3727,0.3657,0.3496,0.3353,0.3389,0.3153,0.3103,0.3616,0.3523,0.3311,0.3312,0.3312,0.3312,0.3312,0.3312,0.3373,0.3322,0.3311,0.3227,0.3224,0.3144,0.3129,0.3098,0.3138,0.3099,0.3086,0.3175,0.3346,0.3354,0.3195,0.3116,0.2872,0.2728,0.2734,0.3104,0.3146,0.3186,0.3085,0.2785,0.2785,0.2096,0.209,0.2086]},{"header":{"parameterUnit":"m.s-1","parameterCategory":2,"la1":30.2991,"la2":30.254,"lo1":-89.0895,"lo2":-89.0444,"dy":0.0017,"dx":0.0017,"nx":28,"ny":28,"refTime":"2025-08-06T03:00:00:Z","depth":"0","parameterNumber":3,"parameterNumberName":"V-component_of_CURRENTS"},"data":[0,0,0,0,0,0,0,0,0,0,0,0,0,0,0,0,0,0,0,0,0,0,0,0,0,0,0,0,0,0,0,0,0,0,0,0,0,0,0,0,0,0,0,0,0,0,0,0,0,0,0,0,0,0,0,0,0,0,0.0327,0.0326,0,0.0291,0.029,0.029,0.0261,0.0261,0.0261,0.0261,0.0196,0.0195,0.0193,0,0,0,0,0,0,0,0,0,0,0,0,0,0.0315,0.0316,0.0327,0.0326,0.0326,0.0291,0.029,0.029,0.0261,0.0261,0.0261,0.0261,0.0197,0.0195,0.0193,0,0,0,0,0,0,0,0,0,0,0,0,0,0.0302,0.0316,0.0327,0.0309,0.0307,0.0291,0.029,0.029,0.0262,0.0261,0.0261,0.0261,0.0197,0.0195,0.0193,0.0182,0,0,0.0185,0.0184,0,0,0,0,0,0,0,0,0.0303,0.0303,0.0312,0.031,0.0308,0.0282,0.0263,0.0253,0.0262,0.0277,0.0261,0.0261,0.0223,0.0219,0.0211,0.0179,0.0176,0.0185,0.0184,0.0183,0.0182,0,0,0,0,0,0,0,0.0304,0.0304,0.0311,0.0312,0.0309,0.0284,0.0282,0.026,0.025,0.0276,0.0274,0.0273,0.0222,0.0213,0.0209,0.0175,0.0185,0.0183,0.0181,0.018,0.0138,0.0139,0,0,0,0,0,0,0.0315,0.0305,0.0312,0.031,0.0307,0.0285,0.0283,0.0289,0.0251,0.0245,0.0273,0.0272,0.0217,0.0212,0.0206,0.0214,0.0183,0.018,0.0179,0.0138,0.0138,0.0139,0,0,0,0,0,0,0.0315,0.0317,0.0313,0.0307,0.0305,0.0286,0.0293,0.0289,0.0283,0.0249,0.0243,0.0273,0.0217,0.021,0.0196,0.021,0.0179,0.0177,0.0138,0.0138,0.0138,0.0215,0,0,0,0,0,0,0.0315,0.0317,0.0322,0.0309,0.0306,0.0315,0.0293,0.0288,0.0284,0.0281,0.0247,0.024,0.0216,0.02,0.0194,0.0207,0.0175,0.0137,0.0138,0.0138,0.0212,0.0218,0.0223,0,0,0,0,0,0.0315,0.0332,0.0323,0.0324,0.0316,0.0315,0.0312,0.0295,0.0284,0.0288,0.0265,0.0242,0.0199,0.0198,0.0191,0.0203,0.0137,0.0138,0.0138,0.0209,0.0216,0.0223,0,0,0,0,0,0,0.0329,0.033,0.032,0.0336,0.0329,0.0311,0.0313,0.0301,0.0285,0.0282,0.0247,0.0239,0.023,0.0205,0.0205,0.0191,0.0163,0.0163,0.022,0.0226,0.0232,0.0256,0.0173,0,0,0,0,0,0.0336,0.0348,0.034,0.035,0.035,0.0331,0.0327,0.0318,0.0303,0.0296,0.0272,0.0245,0.0226,0.0218,0.0193,0.019,0.0167,0.0191,0.0197,0.0202,0.0215,0.0195,0.0201,0.0141,0.0141,0.0141,0,0,0.0343,0.0345,0.0351,0.0354,0.0345,0.0359,0.0328,0.033,0.0341,0.0291,0.0294,0.0261,0.0227,0.0222,0.0216,0.0206,0.0205,0.0202,0.0207,0.0218,0.0197,0.0203,0.0208,0.0142,0.0141,0.0141,0,0,0.0373,0.0367,0.0391,0.039,0.0387,0.0378,0.0383,0.037,0.0363,0.0359,0.0326,0.0306,0.0275,0.0258,0.0245,0.0265,0.0231,0.0255,0.0309,0.029,0.0295,0.0299,0.0275,0.0276,0.0263,0.0263,0.0263,0,0.0381,0.0412,0.0395,0.0419,0.0425,0.0394,0.0421,0.0411,0.0395,0.0399,0.037,0.0333,0.0294,0.0301,0.0304,0.0279,0.0263,0.029,0.0299,0.0302,0.0305,0.0279,0.028,0.0267,0.0266,0.0266,0.0266,0,0.0434,0.0454,0.0468,0.0489,0.0491,0.0508,0.0497,0.0498,0.0479,0.047,0.0463,0.0409,0.0391,0.0372,0.0343,0.0352,0.0331,0.0305,0.0287,0.0317,0.0286,0.0286,0.0272,0.0271,0.027,0.0269,0,0,0.0465,0.0501,0.0505,0.0532,0.0532,0.0547,0.0562,0.0576,0.0605,0.0563,0.0593,0.0535,0.0503,0.0485,0.0442,0.0424,0.0416,0.0383,0.038,0.0368,0.0376,0.0351,0.0347,0.0398,0.0398,0.0399,0.0346,0,0.0512,0.0578,0.0576,0.0633,0.0668,0.0647,0.0673,0.0677,0.0667,0.0686,0.0628,0.0634,0.0548,0.0549,0.051,0.0449,0.0419,0.0433,0.0341,0.0339,0.0321,0.0348,0.0376,0.0331,0.0345,0.0345,0.0345,0,0.0566,0.0607,0.0674,0.0726,0.0739,0.0763,0.0804,0.0827,0.0835,0.0828,0.0807,0.0765,0.073,0.0654,0.055,0.0567,0.0477,0.0417,0.0413,0.0367,0.0313,0.0303,0.0328,0.0187,0.0343,0.0343,0.0343,0,0.0612,0.0675,0.0734,0.075,0.08,0.0825,0.0853,0.0872,0.0921,0.093,0.0967,0.0891,0.088,0.0759,0.0609,0.0589,0.0499,0.045,0.0339,0.0335,0.0329,0.0325,0.0218,0.0375,0.0375,0.0375,0.0375,0,0.0669,0.0717,0.0764,0.0799,0.0884,0.0891,0.098,0.0995,0.1045,0.1135,0.105,0.1098,0.091,0.0829,0.0666,0.0507,0.0531,0.0359,0.0327,0.0355,0.0353,0.0204,0.0107,0.0373,0.0374,0.0374,0.0374,0,0.0713,0.0739,0.0819,0.0883,0.091,0.0974,0.1075,0.1149,0.118,0.1295,0.1312,0.1263,0.1161,0.0958,0.0771,0.06,0.0356,0.0371,0.0412,0.0385,0.0142,0.0048,-0.0101,-0.0155,0.0245,0.0245,0.0244,0,0.0744,0.0789,0.0883,0.0943,0.0975,0.1072,0.1152,0.1211,0.1305,0.1411,0.1482,0.1419,0.1403,0.1102,0.0791,0.0505,0.0344,0.0331,0.0285,0.0143,0.0015,-0.0048,-0.0087,0.0302,0.0302,0.0301,0.0301,0,0.0808,0.0834,0.0901,0.1025,0.1114,0.1233,0.1351,0.1448,0.155,0.1657,0.1773,0.1772,0.1491,0.1214,0.0804,0.0599,0.0239,0.0318,0.0168,0.0051,-0.0019,-0.009,0.0311,0.03,0.03,0.03,0.03,0.03,0.0851,0.0909,0.0996,0.1116,0.1226,0.1378,0.1496,0.1642,0.1817,0.1995,0.198,0.2021,0.1611,0.1061,0.0757,0.0231,0.0214,0.0077,-0.0025,-0.0074,-0.0128,0.0267,0.0219,0.0219,0.0218,0.0218,0.0218,0,0.0906,0.0975,0.1086,0.1228,0.1357,0.141,0.1621,0.1757,0.198,0.2137,0.2237,0.207,0.1576,0.1053,0.033,-0.0036,-0.0154,-0.0234,-0.0313,-0.0336,0.0021,0.0023,-0.0064,-0.0064,-0.0064,-0.0064,-0.0063,-0.0063,0.0936,0.1039,0.1096,0.1306,0.1416,0.1607,0.1736,0.1944,0.2101,0.2296,0.2335,0.2324,0.1911,0.0648,-0.0167,-0.0346,-0.0584,-0.0656,-0.0776,-0.0538,-0.0516,-0.0495,-0.0514,-0.0712,-0.0713,-0.1051,-0.1055,-0.1058]}],[{"header":{"parameterUnit":"m.s-1","parameterCategory":2,"la1":30.2991,"la2":30.254,"lo1":-89.0895,"lo2":-89.0444,"dy":0.0017,"dx":0.0017,"nx":28,"ny":28,"refTime":"2025-08-06T03:00:00:Z","depth":"2","parameterNumber":2,"parameterNumberName":"U-component_of_CURRENTS"},"data":[0,0,0,0,0,0,0,0,0,0,0,0,0,0,0,0,0,0,0,0,0,0,0,0,0,0,0,0,0,0,0,0,0,0,0,0,0,0,0,0,0,0,0,0,0,0,0,0,0,0,0,0,0,0,0,0,0,0,0.3033,0.3034,0,0.3041,0.3041,0.3041,0.3024,0.3023,0.3023,0.3023,0.3006,0.3006,0.3006,0,0,0,0,0,0,0,0,0,0,0,0,0,0.299,0.2991,0.3033,0.3034,0.3034,0.3042,0.3041,0.3041,0.3024,0.3023,0.3023,0.3023,0.3006,0.3006,0.3006,0,0,0,0,0,0,0,0,0,0,0,0,0,0.3001,0.2991,0.3033,0.3029,0.3029,0.3042,0.3041,0.3041,0.3024,0.3023,0.3023,0.3023,0.3007,0.3006,0.3006,0.3009,0,0,0.3005,0.3004,0,0,0,0,0,0,0,0,0.3,0.3002,0.3029,0.303,0.303,0.3035,0.302,0.3031,0.3024,0.3022,0.3023,0.3023,0.3016,0.3015,0.3012,0.3009,0.3008,0.3005,0.3004,0.3004,0.3004,0,0,0,0,0,0,0,0.2999,0.3001,0.3032,0.303,0.303,0.3023,0.3024,0.3022,0.3017,0.3022,0.3022,0.3029,0.3016,0.3012,0.3012,0.3008,0.3005,0.3004,0.3004,0.3004,0.3063,0.3065,0,0,0,0,0,0,0.3008,0.3001,0.3032,0.3033,0.3018,0.3025,0.3025,0.303,0.3018,0.3017,0.3029,0.3028,0.3013,0.3012,0.3011,0.306,0.3004,0.3004,0.3004,0.3062,0.3064,0.3066,0,0,0,0,0,0,0.3007,0.301,0.3032,0.302,0.3023,0.3026,0.3031,0.3031,0.3041,0.3024,0.3022,0.3043,0.3013,0.3011,0.3026,0.3057,0.3004,0.3003,0.3059,0.3062,0.3065,0.3128,0,0,0,0,0,0,0.3005,0.301,0.3019,0.3021,0.3024,0.3052,0.3032,0.3031,0.3047,0.3046,0.3035,0.3032,0.3013,0.3027,0.3026,0.3055,0.3003,0.3057,0.3061,0.3064,0.3124,0.3132,0.314,0,0,0,0,0,0.3004,0.3014,0.3019,0.3023,0.3035,0.3053,0.3054,0.3052,0.3049,0.3059,0.3055,0.3033,0.3048,0.3028,0.3026,0.3056,0.3055,0.306,0.3064,0.312,0.3131,0.314,0,0,0,0,0,0,0.2996,0.3014,0.3019,0.3034,0.3051,0.3052,0.3064,0.3065,0.3069,0.3071,0.305,0.3048,0.3076,0.3061,0.3039,0.3086,0.3051,0.3055,0.3095,0.3105,0.3113,0.3121,0.3003,0,0,0,0,0,0.3001,0.3015,0.3033,0.3046,0.306,0.3067,0.3075,0.3078,0.3083,0.3085,0.3078,0.3079,0.3091,0.3092,0.3096,0.3115,0.3127,0.3137,0.3146,0.3153,0.3161,0.3224,0.3239,0.3079,0.3079,0.3079,0,0,0.3002,0.3015,0.3023,0.3047,0.3059,0.308,0.3071,0.3094,0.3108,0.3083,0.3102,0.3109,0.3105,0.313,0.3142,0.312,0.3203,0.3158,0.3164,0.3168,0.323,0.3246,0.326,0.3082,0.3081,0.3081,0,0,0.3011,0.3026,0.3044,0.3063,0.3093,0.3099,0.3113,0.3129,0.3137,0.316,0.3154,0.3182,0.3184,0.3194,0.3197,0.3256,0.3249,0.326,0.3301,0.3364,0.3377,0.3389,0.3417,0.3431,0.3258,0.3258,0.3259,0,0.301,0.3032,0.3052,0.3076,0.3095,0.3113,0.3137,0.315,0.3167,0.3194,0.3176,0.3227,0.3217,0.3266,0.3281,0.3274,0.33,0.326,0.3375,0.3387,0.3399,0.3424,0.3438,0.3262,0.3262,0.3261,0.3261,0,0.3029,0.3053,0.3068,0.3103,0.313,0.3153,0.3182,0.3212,0.3227,0.3249,0.3309,0.3304,0.3339,0.3342,0.3323,0.3403,0.3391,0.3382,0.3348,0.3419,0.344,0.3454,0.3267,0.3266,0.3265,0.3264,0,0,0.3004,0.3067,0.3072,0.3092,0.3145,0.3161,0.3215,0.3269,0.3309,0.3341,0.3398,0.3424,0.3444,0.345,0.3442,0.3482,0.3571,0.3466,0.3468,0.349,0.3697,0.3611,0.3617,0.3591,0.3594,0.3596,0.3676,0,0.301,0.305,0.3088,0.3127,0.3151,0.3201,0.3244,0.3303,0.3351,0.3411,0.3452,0.3497,0.3478,0.3496,0.3544,0.357,0.3613,0.3548,0.3627,0.3629,0.3543,0.3633,0.333,0.337,0.369,0.3692,0.3694,0,0.3009,0.3037,0.3078,0.3139,0.3156,0.3187,0.3272,0.3316,0.3425,0.3469,0.3552,0.3581,0.3658,0.3617,0.3723,0.3688,0.3703,0.3711,0.3715,0.3623,0.3571,0.3354,0.3384,0.3718,0.3716,0.3714,0.3712,0,0.2962,0.3025,0.3052,0.3072,0.3149,0.3187,0.3236,0.3342,0.3398,0.3517,0.3579,0.3674,0.3725,0.378,0.381,0.3782,0.3911,0.3875,0.381,0.3803,0.3553,0.3518,0.3954,0.3954,0.3954,0.3953,0.3953,0,0.2937,0.2955,0.3031,0.3042,0.3087,0.3159,0.3228,0.3302,0.3422,0.3499,0.3605,0.3674,0.3775,0.3854,0.3861,0.3889,0.3966,0.3838,0.3833,0.3564,0.3531,0.3834,0.3819,0.3956,0.3956,0.3955,0.3955,0,0.2874,0.2922,0.2955,0.3036,0.3065,0.3099,0.3217,0.3264,0.3397,0.3504,0.3548,0.3714,0.3817,0.3892,0.3981,0.3949,0.3976,0.3959,0.3622,0.3575,0.3807,0.3795,0.3902,0.3899,0.3898,0.3896,0.3895,0,0.2841,0.2854,0.2935,0.2953,0.2989,0.3056,0.31,0.3236,0.3297,0.3509,0.3548,0.3711,0.3783,0.39,0.3872,0.3885,0.3963,0.3605,0.3494,0.3826,0.381,0.38,0.379,0.3181,0.3174,0.3168,0.3164,0,0.2782,0.2816,0.2842,0.2884,0.2924,0.2969,0.3048,0.3088,0.3248,0.3341,0.3462,0.3545,0.3681,0.3569,0.3614,0.3575,0.3579,0.349,0.3951,0.3244,0.3154,0.3136,0.3149,0.3113,0.3118,0.3122,0.3125,0.3127,0.2734,0.2735,0.2773,0.2797,0.2838,0.285,0.284,0.2927,0.2991,0.3086,0.326,0.3281,0.3346,0.3254,0.3164,0.3089,0.333,0.3171,0.3185,0.3206,0.3112,0.3024,0.2939,0.2943,0.2947,0.295,0.2952,0,0.2658,0.2664,0.2681,0.2687,0.2666,0.2742,0.2771,0.2727,0.2723,0.2851,0.2923,0.272,0.2672,0.2731,0.2537,0.2544,0.2489,0.2442,0.2336,0.239,0.2438,0.23,0.1914,0.191,0.1907,0.1904,0,0,0.2617,0.2587,0.2583,0.2507,0.2512,0.2435,0.2416,0.2382,0.2413,0.2377,0.2364,0.2577,0.2666,0.2258,0.2212,0.2026,0.2188,0.1947,0.2787,0.2718,0.2761,0.2874,0.2726,0,0,0,0,0]},{"header":{"parameterUnit":"m.s-1","parameterCategory":2,"la1":30.2991,"la2":30.254,"lo1":-89.0895,"lo2":-89.0444,"dy":0.0017,"dx":0.0017,"nx":28,"ny":28,"refTime":"2025-08-06T03:00:00:Z","depth":"2","parameterNumber":3,"parameterNumberName":"V-component_of_CURRENTS"},"data":[0,0,0,0,0,0,0,0,0,0,0,0,0,0,0,0,0,0,0,0,0,0,0,0,0,0,0,0,0,0,0,0,0,0,0,0,0,0,0,0,0,0,0,0,0,0,0,0,0,0,0,0,0,0,0,0,0,0,0.0222,0.0221,0,0.0191,0.0191,0.019,0.0166,0.0166,0.0166,0.0166,0.0108,0.0107,0.0105,0,0,0,0,0,0,0,0,0,0,0,0,0,0.0204,0.0205,0.0222,0.0221,0.0221,0.0192,0.0191,0.019,0.0166,0.0166,0.0166,0.0166,0.0109,0.0107,0.0105,0,0,0,0,0,0,0,0,0,0,0,0,0,0.0195,0.0205,0.0222,0.0207,0.0205,0.0192,0.0191,0.019,0.0166,0.0166,0.0166,0.0166,0.0109,0.0107,0.0105,0.0094,0,0,0.0098,0.0097,0,0,0,0,0,0,0,0,0.0196,0.0195,0.0209,0.0208,0.0206,0.0184,0.0163,0.0157,0.0166,0.0179,0.0166,0.0166,0.0132,0.0128,0.0121,0.0091,0.0089,0.0098,0.0097,0.0096,0.0095,0,0,0,0,0,0,0,0.0196,0.0196,0.0208,0.0209,0.0207,0.0183,0.0182,0.0162,0.0155,0.0178,0.0177,0.0176,0.0131,0.0123,0.0119,0.0088,0.0098,0.0096,0.0095,0.0094,0.0055,0.0055,0,0,0,0,0,0,0.0207,0.0197,0.0209,0.0207,0.0202,0.0184,0.0183,0.019,0.0156,0.0151,0.0176,0.0175,0.0127,0.0122,0.0117,0.0123,0.0096,0.0094,0.0092,0.0055,0.0055,0.0055,0,0,0,0,0,0,0.0206,0.0208,0.021,0.0202,0.0201,0.0185,0.0193,0.0189,0.0185,0.0155,0.015,0.0177,0.0126,0.012,0.0108,0.012,0.0093,0.0091,0.0054,0.0055,0.0055,0.0122,0,0,0,0,0,0,0.0206,0.0209,0.0214,0.0203,0.0202,0.0211,0.0193,0.0189,0.0186,0.0184,0.0153,0.0148,0.0126,0.0111,0.0106,0.0117,0.0089,0.0054,0.0055,0.0055,0.012,0.0125,0.0129,0,0,0,0,0,0.0206,0.0221,0.0215,0.0216,0.0212,0.0212,0.0209,0.0195,0.0186,0.019,0.0169,0.0149,0.011,0.011,0.0103,0.0114,0.0054,0.0054,0.0055,0.0117,0.0124,0.0129,0,0,0,0,0,0,0.0215,0.022,0.0213,0.0228,0.0223,0.0209,0.021,0.02,0.0186,0.0184,0.0153,0.0146,0.0138,0.0116,0.0116,0.0103,0.0078,0.0077,0.0128,0.0133,0.0138,0.0159,0.0087,0,0,0,0,0,0.022,0.0233,0.0229,0.0239,0.024,0.0225,0.0221,0.0214,0.0202,0.0196,0.0175,0.0152,0.0134,0.0127,0.0104,0.01,0.0075,0.0101,0.0106,0.0111,0.0122,0.0095,0.0098,0.0057,0.0057,0.0057,0,0,0.0225,0.023,0.0236,0.0242,0.0235,0.0249,0.0222,0.0226,0.0236,0.0191,0.0195,0.0166,0.0135,0.013,0.0125,0.0115,0.0108,0.0111,0.0116,0.0125,0.0096,0.01,0.0103,0.0058,0.0058,0.0058,0,0,0.0251,0.0248,0.027,0.0272,0.0272,0.0265,0.027,0.0261,0.0255,0.0252,0.0223,0.0204,0.0178,0.0161,0.0149,0.0166,0.0131,0.0158,0.0204,0.0178,0.0181,0.0184,0.0155,0.0155,0.0165,0.0165,0.0165,0,0.0256,0.0287,0.0274,0.0296,0.0305,0.0279,0.0305,0.0296,0.0283,0.0286,0.0262,0.0226,0.0194,0.0196,0.02,0.0178,0.0158,0.0187,0.0186,0.0188,0.0189,0.0159,0.0158,0.0168,0.0168,0.0167,0.0167,0,0.0303,0.0323,0.0336,0.0358,0.0363,0.038,0.0372,0.0373,0.0357,0.0349,0.034,0.0292,0.0275,0.0258,0.0234,0.0236,0.0216,0.0192,0.0175,0.0198,0.0164,0.0161,0.0173,0.0172,0.0171,0.017,0,0,0.0331,0.0364,0.0369,0.0395,0.04,0.0415,0.0428,0.0441,0.0465,0.0427,0.0448,0.04,0.0371,0.0355,0.0317,0.0293,0.0277,0.0257,0.0254,0.0236,0.0221,0.0197,0.0191,0.0257,0.0257,0.0258,0.0192,0,0.0373,0.0433,0.0433,0.0487,0.052,0.0504,0.0526,0.053,0.052,0.0532,0.0477,0.0476,0.041,0.0407,0.037,0.0306,0.0274,0.0297,0.0195,0.0192,0.0174,0.0189,0.0203,0.0146,0.0189,0.0189,0.0189,0,0.0423,0.0461,0.0522,0.0571,0.0584,0.0607,0.0644,0.0665,0.0664,0.0655,0.0632,0.0588,0.0549,0.0486,0.0383,0.0403,0.032,0.0259,0.0255,0.021,0.0163,0.0129,0.0139,0.0184,0.0184,0.0185,0.0185,0,0.0465,0.0523,0.0578,0.0594,0.064,0.0664,0.069,0.0704,0.0745,0.074,0.0761,0.069,0.0672,0.0557,0.0418,0.0406,0.0301,0.0263,0.0159,0.0155,0.0137,0.0132,0.0186,0.0186,0.0186,0.0186,0.0187,0,0.0518,0.0563,0.0606,0.0639,0.0718,0.0725,0.0804,0.0816,0.0852,0.0921,0.0835,0.086,0.0691,0.0605,0.0458,0.0306,0.0325,0.0173,0.0141,0.0159,0.0158,0.0165,0.0164,0.0184,0.0184,0.0185,0.0185,0,0.0559,0.0582,0.0656,0.0716,0.0742,0.0802,0.0892,0.0955,0.097,0.1054,0.106,0.0998,0.0889,0.0704,0.0523,0.0376,0.022,0.0157,0.0187,0.016,0.008,0.0082,0.0038,0.0036,0.0035,0.0034,0.0034,0,0.0587,0.0628,0.0717,0.0772,0.0803,0.0892,0.0963,0.1012,0.109,0.1147,0.1199,0.1116,0.1077,0.0791,0.0519,0.0258,0.022,0.0091,0.0062,0.0094,0.0066,0.0071,0.0075,0.0058,0.0058,0.0057,0.0057,0,0.0645,0.067,0.0733,0.0846,0.0929,0.1037,0.1141,0.1219,0.1294,0.1357,0.142,0.139,0.1127,0.0864,0.0498,0.0316,0.0131,0.0074,0.0106,0.0096,0.0108,0.0083,0.0087,0.0053,0.0053,0.0054,0.0054,0.0054,0.0685,0.0738,0.0818,0.0928,0.1031,0.1164,0.1264,0.1378,0.1506,0.1611,0.158,0.1538,0.1238,0.0772,0.045,0.0105,0.0125,-0.0005,-0.0002,0.0001,0.0018,0.0028,-0.0039,-0.004,-0.004,-0.004,-0.004,0,0.0737,0.0797,0.0897,0.1026,0.1144,0.1195,0.1373,0.1471,0.1625,0.171,0.1754,0.1465,0.1165,0.0812,0.0306,0.0009,-0.0013,-0.0093,-0.0056,-0.005,-0.0045,-0.003,-0.0101,-0.0102,-0.0103,-0.0104,0,0,0.0764,0.0858,0.0906,0.1093,0.1193,0.1359,0.1465,0.1606,0.17,0.178,0.176,0.1706,0.1273,0.0897,0.0488,0.0192,0.014,0.0131,0.0211,0.031,0.0318,0.0035,0.007,0,0,0,0,0]}],[{"header":{"parameterUnit":"m.s-1","parameterCategory":2,"la1":30.2991,"la2":30.254,"lo1":-89.0895,"lo2":-89.0444,"dy":0.0017,"dx":0.0017,"nx":28,"ny":28,"refTime":"2025-08-06T03:00:00:Z","depth":"4","parameterNumber":2,"parameterNumberName":"U-component_of_CURRENTS"},"data":[0,0,0,0,0,0,0,0,0,0,0,0,0,0,0,0,0,0,0,0,0,0,0,0,0,0,0,0,0,0,0,0,0,0,0,0,0,0,0,0,0,0,0,0,0,0,0,0,0,0,0,0,0,0,0,0,0,0,0.1927,0.1928,0,0.2006,0.2007,0.2007,0.2065,0.2066,0.2066,0.2067,0.2135,0.2136,0.2137,0,0,0,0,0,0,0,0,0,0,0,0,0,0.1805,0.1807,0.1926,0.1928,0.1929,0.2006,0.2007,0.2007,0.2064,0.2066,0.2067,0.2068,0.2134,0.2135,0.2137,0,0,0,0,0,0,0,0,0,0,0,0,0,0.1864,0.1807,0.1926,0.197,0.1975,0.2006,0.2007,0.2008,0.2064,0.2066,0.2067,0.2068,0.2134,0.2135,0.2137,0.2119,0,0,0.2141,0.2142,0,0,0,0,0,0,0,0,0.1861,0.1868,0.1962,0.1967,0.1973,0.2031,0.1989,0.2046,0.2064,0.2026,0.2067,0.2069,0.2101,0.2105,0.2111,0.2123,0.2126,0.2141,0.2142,0.2143,0.2143,0,0,0,0,0,0,0,0.1857,0.1865,0.1954,0.1964,0.197,0.198,0.1989,0.2,0.2051,0.2029,0.2035,0.205,0.2103,0.2109,0.2113,0.2127,0.2141,0.2143,0.2144,0.2144,0.2255,0.2257,0,0,0,0,0,0,0.1856,0.1861,0.1951,0.1956,0.1924,0.1981,0.1992,0.2007,0.2052,0.2061,0.2049,0.2053,0.2106,0.2111,0.2116,0.2209,0.2143,0.2144,0.2145,0.2253,0.2255,0.2258,0,0,0,0,0,0,0.1853,0.1863,0.1948,0.1914,0.1926,0.1983,0.1999,0.2008,0.206,0.2068,0.2076,0.2097,0.2107,0.2113,0.2166,0.2208,0.2145,0.2146,0.225,0.2254,0.2257,0.2324,0,0,0,0,0,0,0.1849,0.1861,0.1885,0.1914,0.1928,0.1994,0.1999,0.2009,0.2067,0.2073,0.211,0.2116,0.2109,0.2164,0.2167,0.2209,0.2147,0.2248,0.2252,0.2256,0.2319,0.2329,0.2338,0,0,0,0,0,0.1844,0.1865,0.1885,0.1897,0.1955,0.1996,0.2004,0.2045,0.2068,0.2095,0.2126,0.2117,0.2191,0.2166,0.217,0.2213,0.2246,0.2251,0.2255,0.2315,0.2327,0.2338,0,0,0,0,0,0,0.1824,0.1874,0.1897,0.1934,0.1977,0.2008,0.2043,0.2069,0.2114,0.2135,0.2138,0.2145,0.2209,0.2202,0.2175,0.2258,0.2219,0.2224,0.2263,0.2275,0.2284,0.2284,0.2149,0,0,0,0,0,0.1831,0.1865,0.191,0.1946,0.1972,0.2016,0.2045,0.2077,0.2114,0.2138,0.2164,0.2195,0.2222,0.2244,0.2264,0.2304,0.2308,0.2337,0.2346,0.2354,0.2358,0.2411,0.2425,0.2273,0.2273,0.2273,0,0,0.1834,0.1868,0.1889,0.1946,0.1984,0.2024,0.2037,0.2098,0.2137,0.2136,0.2206,0.2231,0.2242,0.2292,0.232,0.2297,0.24,0.236,0.2366,0.2366,0.2417,0.2432,0.2445,0.2276,0.2275,0.2275,0,0,0.1848,0.1892,0.1925,0.1964,0.2035,0.206,0.2088,0.2147,0.2185,0.2246,0.226,0.2313,0.2354,0.2371,0.2381,0.2453,0.2449,0.247,0.2514,0.2566,0.2579,0.259,0.2613,0.2626,0.2471,0.2472,0.2472,0,0.1856,0.1898,0.1941,0.1984,0.2024,0.2081,0.2126,0.2164,0.2235,0.2275,0.2283,0.2377,0.2388,0.2446,0.2473,0.2474,0.2497,0.2469,0.2578,0.2589,0.2599,0.262,0.2633,0.2475,0.2475,0.2475,0.2474,0,0.1881,0.1933,0.196,0.203,0.2077,0.2129,0.2188,0.2248,0.2303,0.2345,0.2438,0.2459,0.2517,0.2531,0.2522,0.2606,0.2596,0.2585,0.2546,0.2619,0.2636,0.2648,0.2481,0.248,0.2478,0.2477,0,0,0.1858,0.1957,0.1973,0.2013,0.211,0.2145,0.2226,0.2308,0.2367,0.2445,0.2519,0.2578,0.2615,0.2629,0.2637,0.2676,0.2763,0.2669,0.267,0.2685,0.2874,0.268,0.2674,0.2782,0.2784,0.2787,0.2855,0,0.1872,0.1945,0.1998,0.2078,0.2121,0.2203,0.2265,0.2352,0.2427,0.251,0.257,0.2642,0.2644,0.2682,0.2729,0.276,0.2801,0.2745,0.2806,0.2807,0.2622,0.2684,0.2795,0.2864,0.2867,0.2869,0.287,0,0.1875,0.1927,0.2004,0.2103,0.2132,0.2192,0.2312,0.2378,0.2505,0.2568,0.2668,0.2715,0.2805,0.2782,0.2889,0.2861,0.288,0.289,0.2892,0.2694,0.2636,0.2779,0.2893,0.2891,0.2889,0.2888,0.2886,0,0.182,0.1928,0.1989,0.2025,0.2145,0.2209,0.2283,0.2411,0.2478,0.2621,0.2686,0.2797,0.2866,0.2921,0.2964,0.2945,0.3057,0.3026,0.2867,0.2854,0.2978,0.2965,0.3097,0.3097,0.3097,0.3097,0.3096,0,0.1791,0.1846,0.1975,0.2007,0.209,0.219,0.2291,0.2384,0.2516,0.2594,0.272,0.2782,0.2912,0.2986,0.3002,0.2972,0.3099,0.288,0.2862,0.3004,0.2993,0.2986,0.2972,0.3099,0.3099,0.3098,0.3098,0,0.1719,0.1803,0.188,0.2017,0.2067,0.2132,0.2289,0.2345,0.2495,0.26,0.2652,0.2815,0.2905,0.2992,0.3081,0.3001,0.2996,0.2954,0.3103,0.3092,0.2747,0.2736,0.2769,0.2762,0.2757,0.2753,0.2749,0,0.1683,0.1718,0.1872,0.1916,0.1988,0.2099,0.2163,0.2324,0.2382,0.2589,0.2615,0.277,0.2855,0.2825,0.2933,0.2945,0.2912,0.2883,0.2801,0.2736,0.2716,0.2714,0.2711,0.2741,0.2739,0.2738,0.2737,0,0.1614,0.1688,0.1748,0.1842,0.1922,0.199,0.2098,0.2124,0.2298,0.2456,0.251,0.2554,0.2648,0.2705,0.2741,0.2744,0.2882,0.2827,0.2837,0.276,0.2703,0.2688,0.2691,0.2718,0.2721,0.2723,0.2724,0,0.1567,0.1589,0.1677,0.1744,0.183,0.1847,0.1921,0.1981,0.206,0.2279,0.2298,0.246,0.2623,0.2603,0.2637,0.2624,0.2574,0.2472,0.2499,0.2521,0.2406,0.2295,0.2173,0,0,0,0,0,0.151,0.1517,0.1567,0.1617,0.1688,0.1743,0.1856,0.1928,0.2098,0.2071,0.2175,0.2245,0.2296,0.2387,0.2323,0.2526,0.2586,0.2439,0.2483,0.2617,0.2639,0.2526,0,0,0,0,0,0,0.1467,0.1514,0.1523,0.1493,0.1504,0.1561,0.1629,0.1742,0.1734,0.192,0.1962,0.2104,0.2192,0.2314,0.2282,0.2306,0.2282,0.2546,0.254,0.2606,0.2625,0.2642,0.2533,0,0,0,0,0]},{"header":{"parameterUnit":"m.s-1","parameterCategory":2,"la1":30.2991,"la2":30.254,"lo1":-89.0895,"lo2":-89.0444,"dy":0.0017,"dx":0.0017,"nx":28,"ny":28,"refTime":"2025-08-06T03:00:00:Z","depth":"4","parameterNumber":3,"parameterNumberName":"V-component_of_CURRENTS"},"data":[0,0,0,0,0,0,0,0,0,0,0,0,0,0,0,0,0,0,0,0,0,0,0,0,0,0,0,0,0,0,0,0,0,0,0,0,0,0,0,0,0,0,0,0,0,0,0,0,0,0,0,0,0,0,0,0,0,0,0.0158,0.0158,0,0.0139,0.0138,0.0138,0.0125,0.0125,0.0125,0.0125,0.0084,0.0083,0.0082,0,0,0,0,0,0,0,0,0,0,0,0,0,0.0146,0.0147,0.0158,0.0158,0.0158,0.0139,0.0138,0.0138,0.0125,0.0125,0.0125,0.0125,0.0084,0.0083,0.0082,0,0,0,0,0,0,0,0,0,0,0,0,0,0.0141,0.0147,0.0158,0.015,0.0149,0.0139,0.0138,0.0138,0.0125,0.0125,0.0125,0.0125,0.0085,0.0083,0.0082,0.0072,0,0,0.0077,0.0076,0,0,0,0,0,0,0,0,0.0141,0.0141,0.0151,0.015,0.0149,0.0135,0.0119,0.0115,0.0125,0.0133,0.0125,0.0125,0.01,0.0097,0.0092,0.007,0.0068,0.0077,0.0076,0.0075,0.0075,0,0,0,0,0,0,0,0.0141,0.0141,0.0149,0.0151,0.015,0.0134,0.0133,0.0118,0.0115,0.0132,0.0131,0.0131,0.0099,0.0094,0.0091,0.0068,0.0077,0.0075,0.0074,0.0074,0.0046,0.0046,0,0,0,0,0,0,0.0148,0.0142,0.015,0.0149,0.0146,0.0134,0.0134,0.0139,0.0116,0.0113,0.0131,0.013,0.0097,0.0093,0.009,0.0097,0.0075,0.0074,0.0073,0.0045,0.0046,0.0046,0,0,0,0,0,0,0.0148,0.0149,0.0151,0.0145,0.0145,0.0135,0.014,0.0138,0.0138,0.0115,0.0112,0.0133,0.0096,0.0092,0.0084,0.0094,0.0073,0.0071,0.0045,0.0045,0.0046,0.0098,0,0,0,0,0,0,0.0148,0.0149,0.0154,0.0146,0.0145,0.0152,0.014,0.0138,0.0138,0.0137,0.0116,0.0112,0.0096,0.0087,0.0083,0.0092,0.007,0.0045,0.0045,0.0046,0.0096,0.01,0.0104,0,0,0,0,0,0.0147,0.0159,0.0155,0.0156,0.0153,0.0153,0.0151,0.0142,0.0138,0.0141,0.0128,0.0113,0.0086,0.0086,0.0081,0.009,0.0045,0.0045,0.0046,0.0095,0.01,0.0104,0,0,0,0,0,0,0.0155,0.0158,0.0154,0.0165,0.0161,0.0151,0.0153,0.0147,0.0139,0.0139,0.0117,0.0112,0.0107,0.009,0.009,0.0082,0.0062,0.0062,0.0101,0.0106,0.0109,0.0124,0.0069,0,0,0,0,0,0.0159,0.0169,0.0165,0.0174,0.0174,0.0164,0.0162,0.0158,0.015,0.0147,0.0133,0.0117,0.0104,0.01,0.0083,0.0081,0.0057,0.0082,0.0086,0.0089,0.0097,0.0068,0.007,0.0047,0.0047,0.0047,0,0,0.0165,0.0167,0.0172,0.0176,0.0172,0.0182,0.0163,0.0167,0.0176,0.0143,0.0149,0.0128,0.0105,0.0103,0.0099,0.0092,0.0082,0.009,0.0093,0.0099,0.0069,0.0071,0.0073,0.0048,0.0048,0.0048,0,0,0.0183,0.0182,0.0198,0.02,0.02,0.0196,0.02,0.0194,0.0192,0.0192,0.0171,0.0157,0.014,0.0127,0.0117,0.0131,0.0101,0.0126,0.0161,0.0133,0.0135,0.0137,0.0107,0.0105,0.0131,0.0131,0.0131,0,0.0189,0.021,0.0201,0.0216,0.0224,0.0207,0.0227,0.0222,0.0214,0.0217,0.0201,0.0176,0.0151,0.0152,0.0157,0.014,0.012,0.0148,0.0139,0.014,0.014,0.0109,0.0107,0.0134,0.0134,0.0133,0.0133,0,0.022,0.0237,0.0246,0.0263,0.0268,0.0282,0.0277,0.028,0.0272,0.0267,0.0261,0.0225,0.0213,0.02,0.0183,0.018,0.0163,0.0145,0.0131,0.0146,0.0112,0.0108,0.0138,0.0137,0.0136,0.0135,0,0,0.024,0.0265,0.0269,0.029,0.0297,0.031,0.0322,0.0333,0.0353,0.0326,0.034,0.0306,0.0286,0.0274,0.0245,0.022,0.0199,0.0192,0.0189,0.0168,0.0139,0.0121,0.0115,0.0183,0.0183,0.0183,0.0114,0,0.027,0.0314,0.0315,0.0359,0.0384,0.0376,0.0396,0.0401,0.0396,0.0403,0.036,0.0361,0.0315,0.0313,0.028,0.0223,0.0193,0.0219,0.0123,0.012,0.0107,0.0112,0.0182,0.0111,0.011,0.0109,0.0109,0,0.0302,0.0331,0.0379,0.0422,0.0433,0.0455,0.0489,0.0507,0.0505,0.0499,0.0481,0.0446,0.041,0.0365,0.0272,0.0294,0.0224,0.017,0.0166,0.0131,0.0096,0.0091,0.0101,0.0102,0.0103,0.0103,0.0103,0,0.0329,0.0376,0.0421,0.0435,0.0476,0.0499,0.0526,0.0539,0.0572,0.0565,0.0575,0.0519,0.0501,0.0404,0.0288,0.0284,0.0177,0.0153,0.0068,0.0065,0.0079,0.0078,0.0082,0.0083,0.0083,0.0083,0.0083,0,0.0361,0.04,0.0442,0.0469,0.0537,0.0548,0.0616,0.0628,0.0655,0.07,0.0635,0.0642,0.0512,0.0432,0.0312,0.0182,0.0192,0.0076,0.0048,0.0101,0.0104,0.0076,0.0076,0.008,0.0081,0.0081,0.0082,0,0.0385,0.0409,0.047,0.0526,0.0552,0.0605,0.0687,0.0736,0.0748,0.0799,0.0801,0.0743,0.064,0.0492,0.0337,0.0227,0.0092,0.004,0.0111,0.0088,-0.0009,-0.0005,-0.0059,-0.006,-0.0061,-0.0062,-0.0062,0,0.0399,0.0432,0.0515,0.0563,0.0595,0.0675,0.0736,0.0782,0.0835,0.086,0.0885,0.0807,0.0742,0.0514,0.035,0.0116,0.0076,-0.0002,-0.0011,-0.0001,-0.0023,-0.0017,-0.0013,-0.0064,-0.0064,-0.0064,-0.0065,0,0.043,0.0459,0.0512,0.061,0.0684,0.0775,0.086,0.0904,0.0957,0.0966,0.0955,0.0834,0.0717,0.0528,0.0346,0.0175,0.0044,-0.0013,-0.0012,-0.0022,-0.0008,-0.0027,-0.0021,-0.0068,-0.0067,-0.0067,-0.0067,0,0.0453,0.0493,0.0562,0.0652,0.0749,0.0842,0.0889,0.0949,0.1,0.1017,0.1014,0.0877,0.0807,0.0559,0.0391,0.0221,0.017,0.01,0.0094,0.0095,0.0152,0.0193,0.0176,0,0,0,0,0,0.0473,0.0519,0.06,0.0697,0.0796,0.0856,0.0958,0.0996,0.1041,0.1043,0.1031,0.0916,0.0677,0.0582,0.0409,0.0355,0.0129,0.0144,0.0043,-0.0087,-0.0083,-0.0045,0,0,0,0,0,0,0.0485,0.0558,0.0596,0.0718,0.0792,0.0906,0.0975,0.101,0.1011,0.1025,0.0909,0.0853,0.0628,0.0775,0.04,0.035,0.0256,0.0038,0.0034,-0.0089,-0.0085,-0.0082,-0.0042,0,0,0,0,0]}]]